Regional Weather Roundup
Issued by NWS

Home | Current Version | Previous Version | Text Only | Print | Product List | Glossary Off
Versions: 1 2 3 4 5 6 7 8 9 10 11 12 13 14 15 16 17 18 19 20 21 22 23 24 25 26 27 28 29 30 31 32 33 34 35 36 37 38 39 40 41 42 43 44 45 46 47 48 49 50

000
ASUS43 KDMX 301407
RWRIA

WEATHER ROUNDUP FOR IOWA
NATIONAL WEATHER SERVICE DES MOINES IA
900 AM CDT SAT MAY 30 2015

NOTE: "FAIR" INDICATES FEW OR NO CLOUDS BELOW 12,000 FEET WITH NO
SIGNIFICANT WEATHER AND/OR OBSTRUCTIONS TO VISIBILITY.

* - THESE STATIONS ARE NOT NWS STATIONS...THUS NOT UNDER NWS
QUALITY CONTROL.  THEY ALSO DO NOT REPORT WEATHER SUCH
AS PRECIPITATION OR FOG.

IAZ001>003-012>014-020>022-031>034-043>046-301500-
   NORTHWEST IOWA

CITY           SKY/WX    TMP DP  RH WIND       PRES   REMARKS
CARROLL *      CLOUDY    52  48  87 N20G28    30.15R
CHEROKEE *     PTSUNNY   50  43  76 N13G20    30.20R
DENISON *      CLOUDY    52  50  93 N13G23    30.16R
LE MARS *      PTSUNNY   50  43  76 N18G26    30.24R
ORANGE CITY *  MOSUNNY   48  43  81 N13G21    30.23R
SHELDON *      MOSUNNY   48  43  81 N22G29    30.22R
SIOUX CITY     CLOUDY    52  42  69 N17       30.23R
SPENCER        CLOUDY    51  41  68 N25       30.20R
STORM LAKE *   CLOUDY    50  43  76 N23G30    30.18R
$$

IAZ055>058-069>071-079>083-090>094-301500-
   SOUTHWEST IOWA

CITY           SKY/WX    TMP DP  RH WIND       PRES   REMARKS
ATLANTIC *     CLOUDY    52  50  93 N16       30.14R
AUDUBON *      CLOUDY    52  46  82 N16G23    30.15R
CLARINDA *     CLOUDY    55  52  88 N15       30.14R
COUNCIL BLFS * CLOUDY    52  52 100 N14       30.16S
CRESTON *      CLOUDY    54  54 100 N13G21    30.10R
HARLAN  *      CLOUDY    52  52 100 N16       30.19R
LAMONI         CLOUDY    59  53  80 N13       30.08R
RED OAK *      CLOUDY    54  52  94 N12G21    30.14R
SHENANDOAH *   CLOUDY    54  52  94 N10G18    30.15R
$$

IAZ047>049-059>061-072>074-084-301500-
   CENTRAL IOWA

CITY           SKY/WX    TMP DP  RH WIND       PRES   REMARKS
AMES           CLOUDY    56  51  84 N17       30.09R
ANKENY *       CLOUDY    55  54  94 N10G20    30.08R
CHARITON *     CLOUDY    57  55  94 N12G18    30.06R
DES MOINES     CLOUDY    57  53  86 N14       30.07R
GRINNELL*      CLOUDY    57  55  94 N15       30.05R
KNOXVILLE *    CLOUDY    57  54  88 N12G17    30.05R
MARSHALLTOWN   CLOUDY    56  53  90 N18G26    30.06R
PELLA *        CLOUDY    59  57  94 N10G16    30.06R
PERRY *        CLOUDY    54  52  94 N16G22    30.12R
$$

IAZ004>006-015-016-023>025-035-036-301500-
   NORTH CENTRAL IOWA

CITY           SKY/WX    TMP DP  RH WIND       PRES   REMARKS
ALGONA *       CLOUDY    50  45  81 N17G25    30.17R
CLARION *      CLOUDY    52  48  87 N21       30.12R
ESTHERVILLE    CLOUDY    49  42  77 N20G30    30.19R
FORT DODGE *   CLOUDY    52  45  76 N12G20    30.15R
MASON CITY     CLOUDY    53  47  79 N21G28    30.14R
FOREST CITY *  CLOUDY    50  45  81 N17       30.14R
IOWA FALLS *   CLOUDY    54  50  87 N17       30.10R
$$

IAZ007>011-017>019-026>030-037>042-050>054-066-301500-
   NORTHEAST IOWA

CITY           SKY/WX    TMP DP  RH WIND       PRES   REMARKS
CEDAR RAPIDS   CLOUDY    63  60  90 N16G24    29.99R
CHARLES CITY * CLOUDY    54  52  94 N18G24    30.10R
CLINTON *      CLOUDY    68  63  83 SW3       29.99R
DECORAH *      CLOUDY    54  54 100 N13       30.06R
DUBUQUE        CLOUDY    62  60  93 N15       29.99R
MONTICELLO *   CLOUDY    63  63 100 N14       29.99R
OELWEIN *      CLOUDY    55  55 100 N15       30.06R
WATERLOO       CLOUDY    56  52  86 N15G24    30.05R
$$

IAZ064-065-067-068-078-301500-
   EAST CENTRAL IOWA

CITY           SKY/WX    TMP DP  RH WIND       PRES   REMARKS
DAVENPORT      CLOUDY    68  63  84 S5        29.97R
IOWA CITY      CLOUDY    65  62  90 N10       29.99R
MT. PLEASANT * CLOUDY    64  64 100 NW8       29.99R
MUSCATINE *    CLOUDY    70  64  83 NW6       29.97R
QUAD CITIES    LGT RAIN  67  64  90 VRB3      29.97R FOG
$$

IAZ062-063-075>077-085>089-095>099-301500-
   SOUTHEAST IOWA

CITY           SKY/WX    TMP DP  RH WIND       PRES   REMARKS
BURLINGTON     LGT RAIN  67  66  97 SW8       29.97S
FAIRFIELD *    CLOUDY    64  61  88 N10       30.01R
FORT MADISON * RAIN      64  64 100 SW3       29.99R
KEOKUK *       CLOUDY    66  66 100 SW7       29.98R
OSKALOOSA *    CLOUDY    59  57  94 N14       30.03R
CENTERVILLE *  CLOUDY    57  57 100 NW13      30.05R
OTTUMWA        CLOUDY    60  58  92 NW12      30.02R
WASHINGTON *   CLOUDY    64  63  94 NW12      30.01R
$$

ABBREVIATIONS USED IN REMARKS
   TC - TEMPERATURES IN CELSIUS
  WCI - WIND CHILL INDEX
   HX - HEAT INDEX
  VSB - VISIBILITY
$$



USA.gov is the U.S. government's official web portal to all federal, state and local government web resources and services.